Regional Weather Roundup
Issued by NWS State College, PA

Home | Current Version | Previous Version | Text Only | Print | Product List | Glossary On
Versions: 1 2 3 4 5 6 7 8 9 10 11 12 13 14 15 16 17 18 19 20 21 22 23 24 25 26 27 28 29 30 31 32 33 34 35 36 37 38 39 40 41 42 43 44 45 46 47 48 49 50
000
ASUS41 KCTP 301110
RWRCTP

REGIONAL WEATHER ROUNDUP
NATIONAL WEATHER SERVICE STATE COLLEGE PA
700 AM EDT THU JUL 30 2015

Note: "fair" indicates few or no clouds below 12,000 feet with no
significant weather and/or obstructions to visibility.

* = STATION THAT DOES NOT REPORT PRECIPITATION /E.G. RAIN...SNOW...ETC/
    THUNDER OR FOG.

PAZ002>004-007>009-013>016-020>023-029>032-301200-
WESTERN PENNSYLVANIA

CITY           SKY/WX    TMP DP  RH WIND       PRES   REMARKS
ERIE           MOCLDY    69  63  81 S6        29.92R
MEADVILLE      LGT RAIN  68  60  75 W6        29.97R
FRANKLIN*      PTCLDY    64  61  88 W6        29.98R
NEW CASTLE     FAIR      69  64  84 CALM      29.98R
BEAVER COUNTY  NOT AVBL
BUTLER*        MOCLDY    72  61  68 NW3       29.99R
PITTSBURGH INT CLOUDY    75  63  66 NW12      29.97R
PITTSBURGH     CLOUDY    74  60  61 NW8       29.96R
INDIANA*       CLOUDY    73  73 100 NW7       29.98R FOG
LATROBE        CLOUDY    73  73 100 SW6       29.96R FOG
WASHINGTON CO* NOT AVBL
$$

PAZ004>006-010>012-017>019-024>028-033>037-041-042-045-046-049>053-301200-
CENTRAL PENNSYLVANIA

CITY           SKY/WX    TMP DP  RH WIND       PRES   REMARKS
BRADFORD       CLOUDY    68  66  93 W8        29.96R
DUBOIS         CLOUDY    73  69  87 NW6       29.95R FOG
CLEARFIELD     CLOUDY    70  68  93 S3        29.95R FOG
JOHNSTOWN      CLOUDY    70  68  93 SW6       29.99S FOG
ALTOONA        PTCLDY    72  68  87 W3        29.96R FOG
STATE COLLEGE  HVY RAIN  73  72  94 W17       29.94R VSB 1/2
WILLIAMSPORT   MOCLDY    73  69  87 N3        29.87S
SELINSGROVE    MOCLDY    76  74  93 CALM      29.90R
FT INDIANTOWN  CLOUDY    75  72  88 S3        29.91S
CAPITAL CITY   PTCLDY    77  71  82 CALM      29.90S
HARRISBURG     MOCLDY    77  71  82 VRB5      29.90R
YORK           PTCLDY    76  71  85 CALM      29.92R
$$

PAZ038>040-043-044-047-048-054-055-060>062-067>071-301200-
EASTERN PENNSYLVANIA

CITY           SKY/WX    TMP DP  RH WIND       PRES   REMARKS
SCRANTON       PTSUNNY   76  71  85 W3        29.91R HAZE
MOUNT POCONO     N/A    N/A N/A N/A MISG      29.97S
ALLENTOWN      CLOUDY    78  73  84 S5        29.91S
QUAKERTOWN*    CLOUDY    75  73  94 S3        29.94R
READING        CLOUDY    78  73  84 SW3       29.91R
LANCASTER      PTCLDY    76  73  91 SW5       29.92R
COATESVILLE    CLOUDY    75  75 100 CALM      29.95R FOG
POTTSTOWN      CLOUDY    76  74  93 S3        29.94R
BLUE BELL      CLOUDY    77  73  88 CALM      29.92R
DOYLESTOWN     CLOUDY    74  73  97 S3        29.93R
WILLOW GROVE   NOT AVBL
NORTH PHILA    MOSUNNY   79  70  74 S6        29.93S
PHILADELPHIA   PTSUNNY   78  73  84 S8        29.93R
$$


USA.gov is the U.S. government's official web portal to all federal, state and local government web resources and services.